This demonstration page uses our WeatherBlox Daily Observations layout. Learn more.

Left ArrowRight Arrow

39.12711, -84.51439

Hourly Observations for July 24, 2022

Temp ( °F °C ) Dew Point ( °F °C ) Humidity (%) Winds ( mph kmh ) Pressure ( in mb ) Visibility ( mi km ) Precip ( " mm )
12:53 am 00:53 Clear 76 24.4 70 21.1 82 82 Calm 30.03 1017 8 13 0.00 0.00
1:53 am 01:53 Clear 75 23.9 71 21.7 88 88 SSW 7 11 30.00 1016 7 11 0.00 0.00
2:53 am 02:53 Mostly Clear with Mist and Fog 75 23.9 72 22.2 90 90 W 3 6 30.00 1016 6 10 0.00 0.00
3:53 am 03:53 Clear with Mist and Fog 75 23.9 72 22.2 90 90 Calm 30.00 1016 6 10 0.00 0.00
4:53 am 04:53 Clear with Mist and Fog 73 22.8 72 22.2 96 96 Calm 30.00 1016 3 5 0.00 0.00
5:53 am 05:53 Clear with Mist and Fog 71 21.7 71 21.7 100 100 SW 6 9 30.00 1016 2 3 0.00 0.00
6:03 am 06:03 Clear with Mist and Fog 73 22.8 72 22.2 96 96 WSW 5 7 29.99 1016 4 6 0.00 0.00
6:53 am 06:53 Sunny 74 23.3 72 22.2 94 94 Calm 30.01 1016 8 13 0.00 0.00
7:53 am 07:53 Hazy 75 23.9 70 21.1 84 84 SSW 8 13 30.00 1016 6 10 0.00 0.00
8:53 am 08:53 Sunny 79 26.1 71 21.7 77 77 S 7 11 30.02 1017 7 11 0.00 0.00
9:53 am 09:53 Sunny 84 28.9 73 22.8 70 70 SSW 9 15 30.00 1016 7 11 0.00 0.00
10:53 am 10:53 Sunny 87 30.6 74 23.3 65 65 SW 9 15 29.99 1016 8 13 0.00 0.00
11:53 am 11:53 Sunny 87 30.6 73 22.8 63 63 WSW 12 19 30.01 1016 10 16 0.00 0.00
12:53 pm 12:53 Sunny 88 31.1 73 22.8 61 61 SSW 16 26 29.98 1015 9 14 0.00 0.00
1:53 pm 13:53 Partly Cloudy 88 31.1 72 22.2 59 59 SW 15 24 29.98 1015 10 16 0.00 0.00
2:53 pm 14:53 Sunny 89 31.7 74 23.3 61 61 SW 14 22 29.96 1015 10 16 0.00 0.00
3:53 pm 15:53 Mostly Sunny 91 32.8 74 23.3 57 57 SSW 14 22 29.95 1014 10 16 0.00 0.00
4:53 pm 16:53 Partly Cloudy 89 31.7 72 22.2 57 57 SW 10 17 29.95 1014 10 16 0.00 0.00
5:53 pm 17:53 Mostly Sunny 90 32.2 74 23.3 59 59 SSW 9 15 29.93 1014 10 16 0.00 0.00
6:53 pm 18:53 Sunny 86 30 73 22.8 65 65 S 14 22 29.89 1012 10 16 0.00 0.00
7:53 pm 19:53 Mostly Sunny 85 29.4 72 22.2 65 65 SSW 13 20 29.91 1013 10 16 0.00 0.00
8:53 pm 20:53 Partly Cloudy with Light Rain 84 28.9 73 22.8 70 70 SSW 12 19 29.92 1013 10 16 0.00 0.00
9:44 pm 21:44 Clear with Nearby Thunderstorms 80 26.7 75 23.9 85 85 SSW 12 19 29.93 1013 7 11 0.02 0.51
9:53 pm 21:53 Partly Cloudy with Light Rain 80 26.7 75 23.9 85 85 SSW 12 19 29.93 1013 7 11 0.02 0.51
10:53 pm 22:53 Mostly Cloudy with Light Rain 78 25.6 76 24.4 93 93 S 10 17 29.93 1013 8 13 0.03 0.76
11:53 pm 23:53 Clear 79 26.1 74 23.3 85 85 SW 9 15 29.93 1014 9 14 0.01 0.25

Powered by Vaisala Xweather